,,Stat6,,Stat2,,Stat8,,Stat9,,Stat10,,Wind1,,Wind1,
time,status,PA1M_AVG,status,PR1M_SUM,status,RH1M_AVG,status,SR1M_AVG,status,TA1M_AVG,status,W1dAve1m,status,W1sAve1m,
2005-06-05, 00:00:00,VALID,917.093,VALID,0,VALID,98.6282,VALID,-0.0509425,VALID,20.5907,VALID,339,VALID,0.205915,
2005-06-05, 00:01:00,VALID,917.1,VALID,0,VALID,98.6256,VALID,-0.0509425,VALID,20.591,VALID,339,VALID,0.228016,
2005-06-05, 00:02:00,VALID,917.095,VALID,0,VALID,98.6625,VALID,-0.0849042,VALID,20.5816,VALID,340,VALID,0.160547,
2005-06-05, 00:03:00,VALID,917.103,VALID,0,VALID,98.6536,VALID,-0.0169808,VALID,20.5721,VALID,345,VALID,0.290591,
2005-06-05, 00:04:00,VALID,917.1,VALID,0,VALID,98.7465,VALID,-0.0339617,VALID,20.5552,VALID,35,VALID,0.375953,
2005-06-05, 00:05:00,VALID,917.1,VALID,0,VALID,98.8024,VALID,-0.0339617,VALID,20.5453,VALID,30,VALID,0.490104,
2005-06-05, 00:06:00,VALID,917.101,VALID,0,VALID,98.9245,VALID,-0.0169808,VALID,20.5326,VALID,29,VALID,0.502604,
2005-06-05, 00:07:00,VALID,917.09,VALID,0,VALID,98.9499,VALID,-0.0169808,VALID,20.5259,VALID,73,VALID,0.452744,
2005-06-05, 00:08:00,VALID,917.099,VALID,0,VALID,98.9423,VALID,0,VALID,20.5135,VALID,146,VALID,0.245916,
2005-06-05, 00:09:00,VALID,917.103,VALID,0,VALID,98.9639,VALID,-0.0509425,VALID,20.51,VALID,198,VALID,0.52689,
2005-06-05, 00:10:00,VALID,917.097,VALID,0,VALID,99.072,VALID,-0.0169808,VALID,20.5167,VALID,350,VALID,0.768229,
2005-06-05, 00:11:00,VALID,917.089,VALID,0,VALID,99.0287,VALID,-0.0509425,VALID,20.5041,VALID,265,VALID,0.553516,
2005-06-05, 00:12:00,VALID,917.091,VALID,0,VALID,98.9753,VALID,-0.0169808,VALID,20.5003,VALID,320,VALID,0.401389,
2005-06-05, 00:13:00,VALID,917.092,VALID,0,VALID,98.9855,VALID,0,VALID,20.5003,VALID,326,VALID,0.00434028,
2005-06-05, 00:14:00,VALID,917.099,VALID,0,VALID,98.9703,VALID,0.0169808,VALID,20.4971,VALID,326,VALID,0.128472,
2005-06-05, 00:15:00,VALID,917.082,VALID,0,VALID,99.0377,VALID,-0.0169808,VALID,20.5103,VALID,10,VALID,0.79742,
2005-06-05, 00:16:00,VALID,917.082,VALID,0,VALID,99.0694,VALID,-0.0169808,VALID,20.5237,VALID,33,VALID,0.603299,
2005-06-05, 00:17:00,VALID,917.088,VALID,0,VALID,98.9982,VALID,-0.0509425,VALID,20.5202,VALID,55,VALID,0.482422,
2005-06-05, 00:18:00,VALID,917.066,VALID,0,VALID,98.955,VALID,-0.0339617,VALID,20.5165,VALID,48,VALID,0.605114,
2005-06-05, 00:19:00,VALID,917.079,VALID,0,VALID,98.8851,VALID,-0.0509425,VALID,20.5132,VALID,226,VALID,0.661086,
2005-06-05, 00:20:00,VALID,917.081,VALID,0,VALID,98.9067,VALID,-0.0339617,VALID,20.5299,VALID,156,VALID,0.513021,
2005-06-05, 00:21:00,VALID,917.073,VALID,0,VALID,98.8749,VALID,0,VALID,20.5162,VALID,117,VALID,0.883398,
2005-06-05, 00:22:00,VALID,917.076,VALID,0,VALID,98.8533,VALID,-0.0509425,VALID,20.5232,VALID,29,VALID,1.19345,
2005-06-05, 00:23:00,VALID,917.076,VALID,0,VALID,98.9194,VALID,0,VALID,20.5296,VALID,34,VALID,1.30167,
2005-06-05, 00:24:00,VALID,917.084,VALID,0,VALID,98.913,VALID,-0.0339617,VALID,20.5463,VALID,350,VALID,1.23615,
2005-06-05, 00:25:00,VALID,917.078,VALID,0,VALID,98.8711,VALID,0,VALID,20.5458,VALID,195,VALID,0.837766,
2005-06-05, 00:26:00,VALID,917.088,VALID,0,VALID,98.8851,VALID,-0.0169808,VALID,20.5358,VALID,80,VALID,0.70434,
2005-06-05, 00:27:00,VALID,917.095,VALID,0,VALID,98.8876,VALID,0,VALID,20.5323,VALID,122,VALID,0.385831,
2005-06-05, 00:28:00,VALID,917.101,VALID,0,VALID,98.8749,VALID,-0.0169808,VALID,20.5261,VALID,91,VALID,0.824319,
2005-06-05, 00:29:00,VALID,917.131,VALID,0,VALID,98.8762,VALID,-0.0339617,VALID,20.5396,VALID,353,VALID,0.524368,
2005-06-05, 00:30:00,VALID,917.127,VALID,0,VALID,98.8787,VALID,0,VALID,20.5358,VALID,20,VALID,0.794085,
2005-06-05, 00:31:00,VALID,917.131,VALID,0,VALID,98.8736,VALID,-0.0169808,VALID,20.5364,VALID,333,VALID,0.632422,
2005-06-05, 00:32:00,VALID,917.108,VALID,0,VALID,98.8304,VALID,0,VALID,20.5264,VALID,345,VALID,0.46875,
2005-06-05, 00:33:00,VALID,917.099,VALID,0,VALID,98.7019,VALID,0,VALID,20.51,VALID,7,VALID,1.28792,
2005-06-05, 00:34:00,VALID,917.098,VALID,0,VALID,98.7465,VALID,-0.0169808,VALID,20.5135,VALID,22,VALID,1.08828,
2005-06-05, 00:35:00,VALID,917.084,VALID,0,VALID,98.8685,VALID,0,VALID,20.5234,VALID,25,VALID,1.24637,
2005-06-05, 00:36:00,VALID,917.06,VALID,0,VALID,98.9575,VALID,-0.0169808,VALID,20.5299,VALID,25,VALID,1.10658,
2005-06-05, 00:37:00,VALID,917.06,VALID,0,VALID,98.9664,VALID,0,VALID,20.5336,VALID,32,VALID,0.511719,
2005-06-05, 00:38:00,VALID,917.029,VALID,0,VALID,98.9054,VALID,0,VALID,20.5396,VALID,32,VALID,0.75279,
2005-06-05, 00:39:00,VALID,917.006,VALID,0,VALID,98.8062,VALID,0,VALID,20.5296,VALID,24,VALID,0.914249,
2005-06-05, 00:40:00,VALID,916.993,VALID,0,VALID,98.8139,VALID,-0.0339617,VALID,20.5296,VALID,31,VALID,1.16555,
2005-06-05, 00:41:00,VALID,916.962,VALID,0,VALID,98.7604,VALID,0,VALID,20.5393,VALID,23,VALID,1.44993,
2005-06-05, 00:42:00,VALID,916.948,VALID,0,VALID,98.7604,VALID,0,VALID,20.5229,VALID,27,VALID,2.04836,
2005-06-05, 00:43:00,VALID,916.928,VALID,0,VALID,98.646,VALID,0,VALID,20.5199,VALID,26,VALID,1.39347,
2005-06-05, 00:44:00,VALID,916.907,VALID,0,VALID,98.6358,VALID,0,VALID,20.5227,VALID,26,VALID,1.33371,
2005-06-05, 00:45:00,VALID,916.933,VALID,0,VALID,98.6231,VALID,0,VALID,20.5364,VALID,27,VALID,1.39272,
2005-06-05, 00:46:00,VALID,916.934,VALID,0,VALID,98.5315,VALID,0,VALID,20.5493,VALID,17,VALID,1.90911,
2005-06-05, 00:47:00,VALID,916.955,VALID,0,VALID,98.4425,VALID,0,VALID,20.5326,VALID,23,VALID,1.60575,
2005-06-05, 00:48:00,VALID,916.973,VALID,0,VALID,98.4578,VALID,0,VALID,20.5229,VALID,22,VALID,1.56128,
2005-06-05, 00:49:00,VALID,916.981,VALID,0,VALID,98.5137,VALID,0,VALID,20.5331,VALID,18,VALID,1.24414,
2005-06-05, 00:50:00,VALID,916.966,VALID,0,VALID,98.5036,VALID,0,VALID,20.5264,VALID,21,VALID,1.42245,
2005-06-05, 00:51:00,VALID,916.959,VALID,0,VALID,98.4158,VALID,0,VALID,20.5329,VALID,1,VALID,1.49844,
2005-06-05, 00:52:00,VALID,916.957,VALID,0,VALID,98.3306,VALID,-0.0339617,VALID,20.5199,VALID,25,VALID,0.747869,
2005-06-05, 00:53:00,VALID,916.943,VALID,0,VALID,98.3675,VALID,0,VALID,20.5294,VALID,15,VALID,0.367914,
2005-06-05, 00:54:00,VALID,916.945,VALID,0,VALID,98.3484,VALID,0,VALID,20.5229,VALID,25,VALID,0.196555,
2005-06-05, 00:55:00,VALID,916.913,VALID,0,VALID,98.1997,VALID,-0.0169808,VALID,20.5299,VALID,14,VALID,1.65807,
2005-06-05, 00:56:00,VALID,916.905,VALID,0,VALID,98.0623,VALID,0.0169808,VALID,20.5299,VALID,6,VALID,1.51133,
2005-06-05, 00:57:00,VALID,916.881,VALID,0,VALID,97.9975,VALID,0,VALID,20.5431,VALID,9,VALID,1.26925,
2005-06-05, 00:58:00,VALID,916.87,VALID,0,VALID,98.1577,VALID,-0.0169808,VALID,20.5199,VALID,357,VALID,0.517805,
2005-06-05, 00:59:00,VALID,916.842,VALID,0,VALID,98.173,VALID,0,VALID,20.5137,VALID,350,VALID,0.738281,
2005-06-05, 01:00:00,VALID,916.816,VALID,0,VALID,98.3332,VALID,0,VALID,20.5038,VALID,25,VALID,1.17988,
2005-06-05, 01:01:00,VALID,916.773,VALID,0,VALID,98.4642,VALID,0,VALID,20.5008,VALID,24,VALID,1.88423,
2005-06-05, 01:02:00,VALID,916.789,VALID,0,VALID,98.5659,VALID,0,VALID,20.4842,VALID,6,VALID,1.11086,
2005-06-05, 01:03:00,VALID,916.775,VALID,0,VALID,98.6193,VALID,0,VALID,20.4914,VALID,9,VALID,0.522195,
2005-06-05, 01:04:00,VALID,916.755,VALID,0,VALID,98.6155,VALID,0,VALID,20.4747,VALID,17,VALID,0.893999,
2005-06-05, 01:05:00,VALID,916.752,VALID,0,VALID,98.6396,VALID,0,VALID,20.4578,VALID,8,VALID,0.350497,
2005-06-05, 01:06:00,VALID,916.755,VALID,0,VALID,98.6943,VALID,0,VALID,20.4645,VALID,34,VALID,0.356027,
2005-06-05, 01:07:00,VALID,916.757,VALID,0,VALID,98.6625,VALID,0,VALID,20.4685,VALID,37,VALID,0.340116,
2005-06-05, 01:08:00,VALID,916.74,VALID,0,VALID,98.5265,VALID,-0.0169808,VALID,20.4588,VALID,293,VALID,0.30692,
2005-06-05, 01:09:00,VALID,916.732,VALID,0,VALID,98.4387,VALID,0,VALID,20.4586,VALID,1,VALID,0.748698,
2005-06-05, 01:10:00,VALID,916.719,VALID,0,VALID,98.3853,VALID,0,VALID,20.4454,VALID,21,VALID,1.80673,
2005-06-05, 01:11:00,VALID,916.695,VALID,0,VALID,98.5074,VALID,0,VALID,20.436,VALID,4,VALID,1.41997,
2005-06-05, 01:12:00,VALID,916.674,VALID,0,VALID,98.3942,VALID,-0.0169808,VALID,20.4131,VALID,9,VALID,1.87135,
2005-06-05, 01:13:00,VALID,916.657,VALID,0,VALID,98.4769,VALID,0,VALID,20.4169,VALID,9,VALID,1.87809,
2005-06-05, 01:14:00,VALID,916.684,VALID,0,VALID,98.5303,VALID,-0.0169808,VALID,20.4037,VALID,8,VALID,1.08519,
2005-06-05, 01:15:00,VALID,916.676,VALID,0,VALID,98.4324,VALID,0,VALID,20.3975,VALID,337,VALID,1.48278,
2005-06-05, 01:16:00,VALID,916.683,VALID,0,VALID,98.4527,VALID,0,VALID,20.3905,VALID,16,VALID,1.89418,
2005-06-05, 01:17:00,VALID,916.668,VALID,0,VALID,98.5354,VALID,-0.0169808,VALID,20.397,VALID,19,VALID,1.21609,
2005-06-05, 01:18:00,VALID,916.667,VALID,0,VALID,98.4667,VALID,-0.0169808,VALID,20.3977,VALID,15,VALID,1.48274,
2005-06-05, 01:19:00,VALID,916.667,VALID,0,VALID,98.482,VALID,0,VALID,20.4072,VALID,4,VALID,0.615473,
2005-06-05, 01:20:00,VALID,916.654,VALID,0,VALID,98.515,VALID,0,VALID,20.4002,VALID,8,VALID,0.458984,
2005-06-05, 01:21:00,VALID,916.623,VALID,0,VALID,98.4362,VALID,0,VALID,20.4069,VALID,8,VALID,1.39732,
2005-06-05, 01:22:00,VALID,916.608,VALID,0,VALID,98.5608,VALID,0,VALID,20.3943,VALID,1,VALID,1.83079,
2005-06-05, 01:23:00,VALID,916.599,VALID,0,VALID,98.6244,VALID,-0.0339617,VALID,20.3851,VALID,4,VALID,1.08984,
2005-06-05, 01:24:00,VALID,916.577,VALID,0,VALID,98.6256,VALID,-0.0339617,VALID,20.3485,VALID,360,VALID,1.46584,
2005-06-05, 01:25:00,VALID,916.565,VALID,0,VALID,98.618,VALID,-0.0169808,VALID,20.3423,VALID,1,VALID,2.00632,
2005-06-05, 01:26:00,VALID,916.55,VALID,0,VALID,98.8367,VALID,-0.0509425,VALID,20.3426,VALID,15,VALID,1.64662,
2005-06-05, 01:27:00,VALID,916.544,VALID,0,VALID,98.9016,VALID,-0.0339617,VALID,20.3292,VALID,10,VALID,1.09261,
2005-06-05, 01:28:00,VALID,916.543,VALID,0,VALID,98.8507,VALID,-0.0509425,VALID,20.3197,VALID,338,VALID,1.0476,
2005-06-05, 01:29:00,VALID,916.512,VALID,0,VALID,98.8545,VALID,-0.0339617,VALID,20.3071,VALID,7,VALID,1.67336,
2005-06-05, 01:30:00,VALID,916.519,VALID,0,VALID,98.9588,VALID,-0.0679233,VALID,20.3001,VALID,4,VALID,1.53944,
2005-06-05, 01:31:00,VALID,916.48,VALID,0,VALID,98.9944,VALID,-0.0509425,VALID,20.3003,VALID,358,VALID,1.55278,
2005-06-05, 01:32:00,VALID,916.451,VALID,0,VALID,99.0949,VALID,-0.0339617,VALID,20.2939,VALID,11,VALID,0.901344,
2005-06-05, 01:33:00,VALID,916.434,VALID,0,VALID,99.1521,VALID,-0.0509425,VALID,20.2944,VALID,4,VALID,1.41578,
2005-06-05, 01:34:00,VALID,916.407,VALID,0,VALID,99.2106,VALID,-0.0169808,VALID,20.2815,VALID,11,VALID,1.68455,
2005-06-05, 01:35:00,VALID,916.42,VALID,0,VALID,99.3072,VALID,-0.0679233,VALID,20.2653,VALID,350,VALID,1.80096,
2005-06-05, 01:36:00,VALID,916.414,VALID,0,VALID,99.3263,VALID,-0.0169808,VALID,20.2621,VALID,343,VALID,1.19401,
2005-06-05, 01:37:00,VALID,916.411,VALID,0,VALID,99.3873,VALID,-0.0169808,VALID,20.2613,VALID,11,VALID,1.41461,
2005-06-05, 01:38:00,VALID,916.425,VALID,0,VALID,99.409,VALID,0.0339617,VALID,20.2608,VALID,357,VALID,1.53198,
2005-06-05, 01:39:01,VALID,916.427,VALID,0,VALID,99.4496,VALID,0.0849042,VALID,20.2509,VALID,3,VALID,0.870916,
2005-06-05, 01:40:01,VALID,916.431,VALID,0,VALID,99.4903,VALID,0.0169808,VALID,20.2638,VALID,16,VALID,1.50545,
2005-06-05, 01:41:00,VALID,916.459,VALID,0,VALID,99.545,VALID,0.0339617,VALID,20.2832,VALID,352,VALID,0.658346,
2005-06-05, 01:42:00,VALID,916.461,VALID,0,VALID,99.4764,VALID,0.0169808,VALID,20.2789,VALID,358,VALID,0.910742,
2005-06-05, 01:43:00,VALID,916.443,VALID,0,VALID,99.3759,VALID,0.0849042,VALID,20.2993,VALID,10,VALID,2.80376,
2005-06-05, 01:44:00,VALID,916.46,VALID,0,VALID,99.161,VALID,0.0509425,VALID,20.2991,VALID,22,VALID,2.48295,
2005-06-05, 01:45:01,VALID,916.504,VALID,0,VALID,99.1267,VALID,0.0509425,VALID,20.3157,VALID,356,VALID,1.67152,
2005-06-05, 01:46:00,VALID,916.53,VALID,0,VALID,99.0605,VALID,0.0849042,VALID,20.3252,VALID,29,VALID,1.3873,
2005-06-05, 01:47:00,VALID,916.53,VALID,0,VALID,99.0173,VALID,0.0509425,VALID,20.3341,VALID,18,VALID,1.95419,
2005-06-05, 01:48:01,VALID,916.541,VALID,0,VALID,98.852,VALID,0.101885,VALID,20.3316,VALID,352,VALID,1.96476,
2005-06-05, 01:49:00,VALID,916.562,VALID,0,VALID,98.7668,VALID,0.0679233,VALID,20.3378,VALID,345,VALID,0.74668,
2005-06-05, 01:50:00,VALID,916.562,VALID,0,VALID,98.8952,VALID,0.0679233,VALID,20.3505,VALID,18,VALID,0.671484,
2005-06-05, 01:51:00,VALID,916.552,VALID,0,VALID,98.9957,VALID,0.0509425,VALID,20.3639,VALID,10,VALID,0.590909,
2005-06-05, 01:52:01,VALID,916.527,VALID,0,VALID,98.9143,VALID,-0.0339617,VALID,20.3542,VALID,255,VALID,0.622514,
2005-06-05, 01:53:00,VALID,916.525,VALID,0,VALID,98.9525,VALID,-0.0509425,VALID,20.3746,VALID,24,VALID,1.18605,
2005-06-05, 01:54:01,VALID,916.525,VALID,0,VALID,99.0504,VALID,-0.0169808,VALID,20.4005,VALID,24,VALID,0.541371,
2005-06-05, 01:55:00,VALID,916.475,VALID,0,VALID,98.9804,VALID,-0.0169808,VALID,20.397,VALID,10,VALID,0.812137,
2005-06-05, 01:56:00,VALID,916.439,VALID,0,VALID,98.913,VALID,-0.0679233,VALID,20.4007,VALID,6,VALID,0.948103,
2005-06-05, 01:57:00,VALID,916.401,VALID,0,VALID,98.8812,VALID,-0.0339617,VALID,20.3848,VALID,17,VALID,1.56465,
2005-06-05, 01:58:00,VALID,916.365,VALID,0,VALID,98.8812,VALID,-0.0339617,VALID,20.3719,VALID,360,VALID,1.5,
2005-06-05, 01:59:00,VALID,916.344,VALID,0,VALID,98.9486,VALID,-0.0849042,VALID,20.3727,VALID,22,VALID,1.57459,
2005-06-05, 02:00:00,VALID,916.33,VALID,0,VALID,99.0097,VALID,-0.0509425,VALID,20.3627,VALID,334,VALID,0.796131,
2005-06-05, 02:01:00,VALID,916.317,VALID,0,VALID,99.0249,VALID,-0.0339617,VALID,20.3431,VALID,360,VALID,0.547447,
2005-06-05, 02:02:01,VALID,916.263,VALID,0,VALID,99.0084,VALID,-0.0339617,VALID,20.3297,VALID,8,VALID,2.1669,
2005-06-05, 02:03:00,VALID,916.288,VALID,0,VALID,99.1178,VALID,-0.0339617,VALID,20.3162,VALID,20,VALID,1.65091,
2005-06-05, 02:04:00,VALID,916.297,VALID,0,VALID,99.1737,VALID,-0.0169808,VALID,20.3262,VALID,22,VALID,0.863917,
2005-06-05, 02:05:00,VALID,916.309,VALID,0,VALID,99.1813,VALID,-0.0339617,VALID,20.3262,VALID,20,VALID,0.0378472,
2005-06-05, 02:06:01,VALID,916.316,VALID,0,VALID,99.2398,VALID,-0.0509425,VALID,20.3391,VALID,20,VALID,0.581944,
2005-06-05, 02:07:00,VALID,916.326,VALID,0,VALID,99.3187,VALID,0,VALID,20.3649,VALID,20,VALID,0.885817,
2005-06-05, 02:08:01,VALID,916.3,VALID,0,VALID,99.3517,VALID,0,VALID,20.3614,VALID,29,VALID,1.06383,
2005-06-05, 02:09:01,VALID,916.304,VALID,0,VALID,99.353,VALID,0,VALID,20.3547,VALID,26,VALID,1.26094,
2005-06-05, 02:10:00,VALID,916.306,VALID,0,VALID,99.3339,VALID,0.0169808,VALID,20.3612,VALID,26,VALID,1.34468,
2005-06-05, 02:11:00,VALID,916.31,VALID,0,VALID,99.2793,VALID,0.0169808,VALID,20.3612,VALID,17,VALID,0.626776,
2005-06-05, 02:12:00,VALID,916.286,VALID,0,VALID,99.147,VALID,0,VALID,20.3381,VALID,359,VALID,1.25327,
2005-06-05, 02:13:00,VALID,916.279,VALID,0,VALID,99.203,VALID,0.0169808,VALID,20.3326,VALID,21,VALID,0.523828,
2005-06-05, 02:14:01,VALID,916.267,VALID,0,VALID,99.2589,VALID,0.0169808,VALID,20.3227,VALID,19,VALID,0.440696,
2005-06-05, 02:15:00,VALID,916.265,VALID,0,VALID,99.3187,VALID,-0.0169808,VALID,20.3262,VALID,17,VALID,0.610742,
2005-06-05, 02:16:01,VALID,916.265,VALID,0,VALID,99.3225,VALID,-0.0339617,VALID,20.3195,VALID,18,VALID,0.427148,
2005-06-05, 02:17:01,VALID,916.241,VALID,0,VALID,99.2971,VALID,0,VALID,20.313,VALID,42,VALID,0.256669,
2005-06-05, 02:18:00,VALID,916.22,VALID,0,VALID,99.2818,VALID,0,VALID,20.3133,VALID,42,VALID,0.130814,
2005-06-05, 02:19:00,VALID,916.231,VALID,0,VALID,99.3454,VALID,0.0169808,VALID,20.3063,VALID,42,VALID,0.304688,
2005-06-05, 02:20:00,VALID,916.226,VALID,0,VALID,99.4318,VALID,0,VALID,20.3195,VALID,42,VALID,0.0240091,
2005-06-05, 02:21:01,VALID,916.229,VALID,0,VALID,99.4611,VALID,0,VALID,20.3259,VALID,35,VALID,0.144727,
2005-06-05, 02:22:00,VALID,916.211,VALID,0,VALID,99.4802,VALID,-0.0169808,VALID,20.3292,VALID,33,VALID,0.459028,
2005-06-05, 02:23:01,VALID,916.211,VALID,0,VALID,99.4776,VALID,0,VALID,20.3356,VALID,31,VALID,0.206287,
2005-06-05, 02:24:01,VALID,916.194,VALID,0,VALID,99.5247,VALID,0,VALID,20.3518,VALID,30,VALID,0.00093006,
2005-06-05, 02:25:01,VALID,916.186,VALID,0,VALID,99.4878,VALID,0,VALID,20.3652,VALID,30,VALID,0.467297,
2005-06-05, 02:26:00,VALID,916.155,VALID,0,VALID,99.5043,VALID,0,VALID,20.3749,VALID,30,VALID,0.305432,
2005-06-05, 02:27:01,VALID,916.131,VALID,0,VALID,99.3416,VALID,0,VALID,20.355,VALID,29,VALID,0.553961,
2005-06-05, 02:28:01,VALID,916.115,VALID,0,VALID,99.3721,VALID,0,VALID,20.3483,VALID,27,VALID,0.864879,
2005-06-05, 02:29:00,VALID,916.09,VALID,0,VALID,99.4802,VALID,0.0169808,VALID,20.3649,VALID,27,VALID,0.638808,
2005-06-05, 02:30:00,VALID,916.078,VALID,0,VALID,99.5603,VALID,0,VALID,20.3644,VALID,26,VALID,0.997768,
2005-06-05, 02:31:00,VALID,916.077,VALID,0,VALID,99.573,VALID,0.0339617,VALID,20.3738,VALID,24,VALID,0.432465,
2005-06-05, 02:32:00,VALID,916.067,VALID,0,VALID,99.5183,VALID,0,VALID,20.3676,VALID,25,VALID,0.162246,
2005-06-05, 02:33:01,VALID,916.088,VALID,0,VALID,99.5552,VALID,0,VALID,20.3714,VALID,10,VALID,0.629883,
2005-06-05, 02:34:01,VALID,916.06,VALID,0,VALID,99.3912,VALID,0.0169808,VALID,20.3416,VALID,356,VALID,0.625521,
2005-06-05, 02:35:01,VALID,916.056,VALID,0,VALID,99.4496,VALID,0.0509425,VALID,20.3456,VALID,33,VALID,0.438867,
2005-06-05, 02:36:00,VALID,916.046,VALID,0,VALID,99.4954,VALID,0.0169808,VALID,20.3354,VALID,14,VALID,0.790865,
2005-06-05, 02:37:01,VALID,916.026,VALID,0,VALID,99.5921,VALID,-0.0509425,VALID,20.3334,VALID,21,VALID,0.501143,
2005-06-05, 02:38:00,VALID,916.002,VALID,0,VALID,99.6188,VALID,-0.101885,VALID,20.3508,VALID,21,VALID,0.19436,
2005-06-05, 02:39:00,VALID,915.988,VALID,0,VALID,99.6429,VALID,-0.101885,VALID,20.3501,VALID,21,VALID,0.0426829,
2005-06-05, 02:40:00,VALID,915.996,VALID,0,VALID,99.6048,VALID,-0.118866,VALID,20.3466,VALID,21,VALID,0.21875,
2005-06-05, 02:41:00,VALID,915.965,VALID,0,VALID,99.6455,VALID,-0.118866,VALID,20.3565,VALID,28,VALID,0.990916,
2005-06-05, 02:42:00,VALID,915.968,VALID,0,VALID,99.69,VALID,-0.101885,VALID,20.3632,VALID,21,VALID,0.760653,
2005-06-05, 02:43:01,VALID,915.957,VALID,0,VALID,99.6569,VALID,-0.101885,VALID,20.3468,VALID,21,VALID,0.670516,
2005-06-05, 02:44:00,VALID,915.96,VALID,0,VALID,99.6595,VALID,-0.101885,VALID,20.3476,VALID,19,VALID,0.996271,
2005-06-05, 02:45:01,VALID,915.959,VALID,0,VALID,99.7141,VALID,-0.101885,VALID,20.3406,VALID,21,VALID,0.870584,
2005-06-05, 02:46:00,VALID,915.964,VALID,0,VALID,99.751,VALID,-0.0849042,VALID,20.3506,VALID,17,VALID,0.63058,
2005-06-05, 02:47:00,VALID,915.976,VALID,0,VALID,99.7078,VALID,-0.101885,VALID,20.3371,VALID,359,VALID,0.136161,
2005-06-05, 02:48:00,VALID,915.973,VALID,0,VALID,99.5031,VALID,-0.101885,VALID,20.3076,VALID,267,VALID,0.285247,
2005-06-05, 02:49:00,VALID,915.979,VALID,0,VALID,99.531,VALID,-0.101885,VALID,20.3215,VALID,15,VALID,0.52846,
2005-06-05, 02:50:00,VALID,915.981,VALID,0,VALID,99.587,VALID,-0.118866,VALID,20.318,VALID,15,VALID,0.184549,
2005-06-05, 02:51:00,VALID,915.976,VALID,0,VALID,99.5565,VALID,-0.0849042,VALID,20.3113,VALID,80,VALID,0.366071,
2005-06-05, 02:52:00,VALID,915.968,VALID,0,VALID,99.662,VALID,-0.0509425,VALID,20.3138,VALID,42,VALID,0.509375,
2005-06-05, 02:53:01,VALID,915.95,VALID,0,VALID,99.7218,VALID,0,VALID,20.3292,VALID,32,VALID,0.987048,
2005-06-05, 02:54:00,VALID,915.919,VALID,0,VALID,99.6404,VALID,0.0169808,VALID,20.3294,VALID,27,VALID,0.698552,
2005-06-05, 02:55:00,VALID,915.919,VALID,0,VALID,99.4675,VALID,0,VALID,20.2936,VALID,342,VALID,1.11374,
2005-06-05, 02:56:01,VALID,915.907,VALID,0,VALID,99.5221,VALID,0.0169808,VALID,20.2874,VALID,352,VALID,0.476389,
2005-06-05, 02:57:01,VALID,915.891,VALID,0,VALID,99.5399,VALID,0,VALID,20.2772,VALID,5,VALID,0.909268,
2005-06-05, 02:58:00,VALID,915.879,VALID,0,VALID,99.4942,VALID,0.0169808,VALID,20.2713,VALID,7,VALID,0.620046,
2005-06-05, 02:59:00,VALID,915.863,VALID,0,VALID,99.5819,VALID,-0.0169808,VALID,20.2748,VALID,357,VALID,0.173264,
2005-06-05, 03:00:00,VALID,915.856,VALID,0,VALID,99.62,VALID,0,VALID,20.2745,VALID,357,VALID,0.176669,
2005-06-05, 03:01:01,VALID,915.854,VALID,0,VALID,99.676,VALID,-0.0169808,VALID,20.2775,VALID,357,VALID,0.404687,
2005-06-05, 03:02:01,VALID,915.829,VALID,0,VALID,99.6722,VALID,0,VALID,20.2812,VALID,310,VALID,0.375372,
2005-06-05, 03:03:00,VALID,915.802,VALID,0,VALID,99.5145,VALID,0,VALID,20.2646,VALID,191,VALID,0.577604,
2005-06-05, 03:04:00,VALID,915.804,VALID,0,VALID,99.6684,VALID,0,VALID,20.2745,VALID,41,VALID,1.10903,
2005-06-05, 03:05:01,VALID,915.795,VALID,0,VALID,99.7943,VALID,0,VALID,20.2775,VALID,25,VALID,0.970508,
2005-06-05, 03:06:00,VALID,915.792,VALID,0,VALID,99.8667,VALID,0,VALID,20.2939,VALID,5,VALID,0.90532,
2005-06-05, 03:07:00,VALID,915.781,VALID,0,VALID,99.6506,VALID,-0.0509425,VALID,20.2688,VALID,1,VALID,0.82706,
2005-06-05, 03:08:01,VALID,915.797,VALID,0,VALID,99.4751,VALID,-0.135847,VALID,20.2567,VALID,309,VALID,0.589674,
2005-06-05, 03:09:00,VALID,915.788,VALID,0,VALID,99.5704,VALID,-0.118866,VALID,20.2564,VALID,287,VALID,0.276811,
2005-06-05, 03:10:00,VALID,915.789,VALID,0,VALID,99.5552,VALID,-0.118866,VALID,20.2574,VALID,286,VALID,0.0888445,
2005-06-05, 03:11:00,VALID,915.78,VALID,0,VALID,99.6696,VALID,-0.118866,VALID,20.2539,VALID,309,VALID,0.432513,
2005-06-05, 03:12:01,VALID,915.78,VALID,0,VALID,99.7968,VALID,-0.101885,VALID,20.2663,VALID,9,VALID,0.914063,
2005-06-05, 03:13:01,VALID,915.781,VALID,0,VALID,99.8413,VALID,-0.118866,VALID,20.2696,VALID,15,VALID,1.05469,
2005-06-05, 03:14:01,VALID,915.772,VALID,0,VALID,99.69,VALID,-0.101885,VALID,20.2537,VALID,1,VALID,1.50327,
2005-06-05, 03:15:00,VALID,915.794,VALID,0,VALID,99.5501,VALID,-0.118866,VALID,20.2052,VALID,335,VALID,1.11424,
2005-06-05, 03:16:01,VALID,915.797,VALID,0,VALID,99.7205,VALID,-0.101885,VALID,20.2015,VALID,22,VALID,0.875363,
2005-06-05, 03:17:00,VALID,915.802,VALID,0,VALID,99.6811,VALID,-0.118866,VALID,20.1894,VALID,4,VALID,0.796354,
2005-06-05, 03:18:00,VALID,915.797,VALID,0,VALID,99.7917,VALID,-0.118866,VALID,20.1829,VALID,23,VALID,0.630952,
2005-06-05, 03:19:01,VALID,915.811,VALID,0,VALID,99.7993,VALID,-0.118866,VALID,20.1762,VALID,15,VALID,0.439499,
2005-06-05, 03:20:01,VALID,915.801,VALID,0,VALID,99.7091,VALID,-0.101885,VALID,20.1635,VALID,347,VALID,0.693004,
2005-06-05, 03:21:00,VALID,915.802,VALID,0,VALID,99.718,VALID,-0.118866,VALID,20.1568,VALID,29,VALID,0.759487,
2005-06-05, 03:22:00,VALID,915.795,VALID,0,VALID,99.779,VALID,-0.0679233,VALID,20.1692,VALID,19,VALID,0.814977,
2005-06-05, 03:23:01,VALID,915.792,VALID,0,VALID,99.8998,VALID,0,VALID,20.1779,VALID,26,VALID,0.981488,
2005-06-05, 03:24:01,VALID,915.792,VALID,0,VALID,99.9621,VALID,0,VALID,20.1679,VALID,23,VALID,1.1577,
2005-06-05, 03:25:01,VALID,915.783,VALID,0,VALID,99.925,VALID,0,VALID,20.1685,VALID,347,VALID,0.722479,
2005-06-05, 03:26:01,VALID,915.788,VALID,0,VALID,99.7065,VALID,0,VALID,20.1396,VALID,332,VALID,0.717634,
2005-06-05, 03:27:01,VALID,915.782,VALID,0,VALID,99.737,VALID,-0.0169808,VALID,20.1133,VALID,23,VALID,1.12928,
2005-06-05, 03:28:01,VALID,915.767,VALID,0,VALID,99.7841,VALID,-0.0169808,VALID,20.1096,VALID,7,VALID,1.12064,
2005-06-05, 03:29:01,VALID,915.773,VALID,0,VALID,99.7218,VALID,0,VALID,20.1198,VALID,14,VALID,0.797805,
2005-06-05, 03:30:01,VALID,915.757,VALID,0,VALID,99.7091,VALID,0.0169808,VALID,20.1262,VALID,39,VALID,0.299665,
2005-06-05, 03:31:01,VALID,915.751,VALID,0,VALID,99.7205,VALID,0,VALID,20.126,VALID,45,VALID,0.133878,
2005-06-05, 03:32:00,VALID,915.746,VALID,0,VALID,99.662,VALID,-0.0169808,VALID,20.1364,VALID,56,VALID,0.20827,
2005-06-05, 03:33:01,VALID,915.736,VALID,0,VALID,99.6213,VALID,-0.0169808,VALID,20.1265,VALID,21,VALID,1.19665,
2005-06-05, 03:34:01,VALID,915.709,VALID,0,VALID,99.5603,VALID,0.0169808,VALID,20.1332,VALID,3,VALID,1.24063,
2005-06-05, 03:35:01,VALID,915.714,VALID,0,VALID,99.5081,VALID,0.0169808,VALID,20.1066,VALID,354,VALID,0.667597,